Regional Weather Roundup
Issued by NWS Columbia, SC

Home | Current Version | Previous Version | Text Only | Print | Product List | Glossary On
Versions: 1 2 3 4 5 6 7 8 9 10 11 12 13 14 15 16 17 18 19 20 21 22 23 24 25 26 27 28 29 30 31 32 33 34 35 36 37 38 39 40 41 42 43 44 45 46 47 48 49 50
000
ASUS42 KCAE 062010
RWRCAE
REGIONAL WEATHER ROUNDUP
NATIONAL WEATHER SERVICE COLUMBIA SC
400 PM EDT FRI MAY 06 2016

NOTE: "FAIR" INDICATES FEW OR NO CLOUDS BELOW 12,000 FEET WITH NO
SIGNIFICANT WEATHER AND/OR OBSTRUCTIONS TO VISIBILITY.

NOT ALL STATIONS ARE QUALITY CONTROLLED BY THE NATIONAL
WEATHER SERVICE. USE DATA WITH CAUTION...ESPECIALLY
DEWPOINT OBSERVATIONS.

SCZ001>056-GAZ040-063>065-077-062100-
...UPSTATE SOUTH CAROLINA...

CITY           SKY/WX    TMP DP  RH WIND       PRES   REMARKS
ANDERSON       CLOUDY    71  37  28 N6G18     29.84S
LIBERTY        MOCLDY    69  37  31 N12       29.83
SPARTANBURG    MOSUNNY   66  37  34 NW7G20    29.83F
CLEMSON        MOSUNNY   73  37  27 NW10      29.85F
GREENVILLE     MOSUNNY   71  38  29 N15G24    29.84F
GREENWOOD      CLOUDY    67  40  37 NW6       29.85S
GREER          MOSUNNY   69  40  34 N15G22    29.82F
ROCK HILL      CLOUDY    67  44  43 N13       29.81F
CHESTER        MOCLDY    64  41  42 NW9       29.82F
LAURENS        PTCLDY    70  43  37 N7        29.82F


...CENTRAL SOUTH CAROLINA...

CITY           SKY/WX    TMP DP  RH WIND       PRES   REMARKS
COLUMBIA APT   PTSUNNY   71  44  37 NW12G17   29.80F
COLUMBIA OWENS MOSUNNY   72  42  34 NW9G20    29.81F
MCENTIRE ANGB  MOSUNNY   71  46  41 NW10      29.79F
ORANGEBURG     PTSUNNY   70  44  39 NW12      29.81F
SUMTER SHAW    MOSUNNY   72  46  40 NW12G22   29.77F
NEWBERRY       CLOUDY    61  55  82 E3        29.85F
AIKEN          FAIR      70  43  37 NW9G18    29.85F
BARNWELL       FAIR      73  48  40 SW8       29.82F
MANNING        FAIR      70  45  40 W8        29.79F
LANCASTER      PTCLDY    66  41  39 NW10G20   29.80F
WINNSBORO      LGT RAIN  61  46  59 CALM      29.81S


...EASTERN AND COASTAL SOUTH CAROLINA...

CITY           SKY/WX    TMP DP  RH WIND       PRES   REMARKS
MYRTLE BEACH   PTSUNNY   70  45  40 NW12      29.79S
N MYRTLE BCH   CLOUDY    67  50  54 NW6       29.77S
CONWAY         CLOUDY    64  50  59 N5        29.78S
MARION         MOCLDY    66  46  48 W9        29.77F
HARTSVILLE     MOCLDY    70  43  37 NW5       29.78S
FLORENCE       CLOUDY    71  47  42 NW9       29.78F
DARLINGTON     PTSUNNY   68  46  45 NW12      29.78F
CHARLESTON APT PTSUNNY   72  47  40 NW12      29.80F
MOUNT PLEASANT FAIR      70  48  46 W10       29.80F
WALTERBORO     MOCLDY    72  45  37 NW5       29.82F
BEAUFORT       PTSUNNY   71  47  42 W7        29.83F


...EASTERN GEORGIA...

CITY           SKY/WX    TMP DP  RH WIND       PRES   REMARKS
AUGUSTA BUSH F SUNNY     74  44  34 W16       29.82F
AUGUSTA DANIEL PTSUNNY   73  42  32 NW9       29.83F
THOMSON        PTSUNNY   72  47  41 W13       29.89S
WASHINGTON     FAIR      64  41  42 CALM      29.85F
CLAXTON        MOCLDY    74  51  44 W12       29.84F
SYLVANIA       CLOUDY    72  49  44 NW9       29.84F
STATESBORO     CLOUDY    73  51  44 W10       29.84F
SAVANNAH       PTSUNNY   74  44  34 W12       29.84S


...SOUTHERN NORTH CAROLINA...

CITY           SKY/WX    TMP DP  RH WIND       PRES   REMARKS
CHARLOTTE      PTSUNNY   67  43  41 NW13G20   29.81F
MONROE         CLOUDY    67  43  41 NW16      29.78F
WADESBORO      MOCLDY    70  40  32 NW8G20    29.77F
ROCKINGHAM     CLOUDY    67  46  46 W12G20    29.77S
RUTHERFORDTON  MOSUNNY   66  40  38 NW14G24   29.85F
ASHEVILLE      MOSUNNY   62  38  40 N21G31    29.88F

$$



USA.gov is the U.S. government's official web portal to all federal, state and local government web resources and services.